iso_date,epoch_date,Year,Hour,Min,DOY,POS_DOY,Lat,Lon,BP,Ts,Ta,has_bp,has_ts,has_ta,BuoyID,Buoy_Type,Buoy_Owner,Logistics,Hemisphere
2020-11-18T12:26:03Z,1605702364,2020,12,26,323.5181,323.5181,79.794,129.98,980.7,-1.66,-999.0,yes,yes,no,300534060611380,SVP-B,AOML/USIABP,NABOS,North
2020-11-18T13:00:02Z,1605704403,2020,13,0,323.5417,323.5417,79.796,130.003,980.9,-1.68,-999.0,yes,yes,no,300534060611380,SVP-B,AOML/USIABP,NABOS,North
2020-11-18T13:59:57Z,1605707997,2020,14,0,323.5833,323.5833,79.798,130.052,980.8,-1.65,-999.0,yes,yes,no,300534060611380,SVP-B,AOML/USIABP,NABOS,North
2020-11-18T15:00:00Z,1605711600,2020,15,0,323.625,323.625,79.799,130.102,981.1,-1.66,-999.0,yes,yes,no,300534060611380,SVP-B,AOML/USIABP,NABOS,North
2020-11-18T16:00:02Z,1605715203,2020,16,0,323.6667,323.6667,79.799,130.149,981.2,-1.63,-999.0,yes,yes,no,300534060611380,SVP-B,AOML/USIABP,NABOS,North
2020-11-18T16:59:57Z,1605718797,2020,17,0,323.7083,323.7083,79.8,130.187,981.0,-1.65,-999.0,yes,yes,no,300534060611380,SVP-B,AOML/USIABP,NABOS,North
2020-11-18T18:00:00Z,1605722400,2020,18,0,323.75,323.75,79.8,130.217,981.3,-1.65,-999.0,yes,yes,no,300534060611380,SVP-B,AOML/USIABP,NABOS,North
2020-11-18T19:00:02Z,1605726003,2020,19,0,323.7917,323.7917,79.801,130.241,981.4,-1.66,-999.0,yes,yes,no,300534060611380,SVP-B,AOML/USIABP,NABOS,North
2020-11-18T19:59:57Z,1605729597,2020,20,0,323.8333,323.8333,79.803,130.26,981.6,-1.66,-999.0,yes,yes,no,300534060611380,SVP-B,AOML/USIABP,NABOS,North
2020-11-18T21:00:00Z,1605733200,2020,21,0,323.875,323.875,79.807,130.275,981.4,-1.66,-999.0,yes,yes,no,300534060611380,SVP-B,AOML/USIABP,NABOS,North
2020-11-20T03:00:00Z,1605841200,2020,3,0,325.125,325.125,79.948,131.244,984.6,-1.7,-999.0,yes,yes,no,300534060611380,SVP-B,AOML/USIABP,NABOS,North
2020-11-20T04:00:02Z,1605844803,2020,4,0,325.1667,325.1667,79.946,131.286,985.9,-1.7,-999.0,yes,yes,no,300534060611380,SVP-B,AOML/USIABP,NABOS,North
2020-11-20T04:59:57Z,1605848397,2020,5,0,325.2083,325.2083,79.943,131.33,987.6,-1.72,-999.0,yes,yes,no,300534060611380,SVP-B,AOML/USIABP,NABOS,North
2020-11-20T06:00:00Z,1605852000,2020,6,0,325.25,325.25,79.94,131.368,989.1,-1.74,-999.0,yes,yes,no,300534060611380,SVP-B,AOML/USIABP,NABOS,North
2020-11-20T07:00:02Z,1605855603,2020,7,0,325.2917,325.2917,79.939,131.409,990.5,-1.76,-999.0,yes,yes,no,300534060611380,SVP-B,AOML/USIABP,NABOS,North
2020-11-20T07:59:57Z,1605859197,2020,8,0,325.3333,325.3333,79.939,131.445,992.0,-1.79,-999.0,yes,yes,no,300534060611380,SVP-B,AOML/USIABP,NABOS,North
2020-11-20T09:00:00Z,1605862800,2020,9,0,325.375,325.375,79.94,131.478,993.3,-1.81,-999.0,yes,yes,no,300534060611380,SVP-B,AOML/USIABP,NABOS,North
2020-11-20T10:00:02Z,1605866403,2020,10,0,325.4167,325.4167,79.944,131.511,994.2,-1.86,-999.0,yes,yes,no,300534060611380,SVP-B,AOML/USIABP,NABOS,North
2020-11-20T10:59:57Z,1605869997,2020,11,0,325.4583,325.4583,79.95,131.543,994.6,-1.92,-999.0,yes,yes,no,300534060611380,SVP-B,AOML/USIABP,NABOS,North
2020-11-20T12:00:00Z,1605873600,2020,12,0,325.5,325.5,79.958,131.58,994.8,-1.99,-999.0,yes,yes,no,300534060611380,SVP-B,AOML/USIABP,NABOS,North
2020-11-20T13:00:02Z,1605877203,2020,13,0,325.5417,325.5417,79.966,131.632,995.3,-2.06,-999.0,yes,yes,no,300534060611380,SVP-B,AOML/USIABP,NABOS,North
2020-11-20T13:59:57Z,1605880797,2020,14,0,325.5833,325.5833,79.974,131.691,995.8,-2.14,-999.0,yes,yes,no,300534060611380,SVP-B,AOML/USIABP,NABOS,North
2020-11-20T15:00:00Z,1605884400,2020,15,0,325.625,325.625,79.981,131.741,995.9,-2.21,-999.0,yes,yes,no,300534060611380,SVP-B,AOML/USIABP,NABOS,North
2020-11-20T16:00:02Z,1605888003,2020,16,0,325.6667,325.6667,79.988,131.786,995.8,-2.29,-999.0,yes,yes,no,300534060611380,SVP-B,AOML/USIABP,NABOS,North
2020-11-20T16:59:57Z,1605891597,2020,17,0,325.7083,325.7083,79.995,131.822,995.7,-2.41,-999.0,yes,yes,no,300534060611380,SVP-B,AOML/USIABP,NABOS,North
2020-11-20T18:00:00Z,1605895200,2020,18,0,325.75,325.75,80.001,131.852,995.6,-2.49,-999.0,yes,yes,no,300534060611380,SVP-B,AOML/USIABP,NABOS,North
2020-11-20T19:00:02Z,1605898803,2020,19,0,325.7917,325.7917,80.007,131.878,995.4,-2.57,-999.0,yes,yes,no,300534060611380,SVP-B,AOML/USIABP,NABOS,North
2020-11-20T19:59:57Z,1605902397,2020,20,0,325.8333,325.8333,80.014,131.899,995.2,-2.65,-999.0,yes,yes,no,300534060611380,SVP-B,AOML/USIABP,NABOS,North
2020-11-20T21:00:00Z,1605906000,2020,21,0,325.875,325.875,80.022,131.914,995.0,-2.72,-999.0,yes,yes,no,300534060611380,SVP-B,AOML/USIABP,NABOS,North
2020-11-20T22:00:02Z,1605909603,2020,22,0,325.9167,325.9167,80.023,131.945,994.5,-2.8,-999.0,yes,yes,no,300534060611380,SVP-B,AOML/USIABP,NABOS,North
2020-11-20T22:59:57Z,1605913197,2020,23,0,325.9583,325.9583,80.045,131.94,993.8,-2.86,-999.0,yes,yes,no,300534060611380,SVP-B,AOML/USIABP,NABOS,North
2020-11-21T00:00:00Z,1605916800,2020,0,0,326.0,326.0,80.058,131.947,993.1,-2.93,-999.0,yes,yes,no,300534060611380,SVP-B,AOML/USIABP,NABOS,North
2020-11-21T01:00:02Z,1605920403,2020,1,0,326.0417,326.0417,80.072,131.956,992.2,-2.95,-999.0,yes,yes,no,300534060611380,SVP-B,AOML/USIABP,NABOS,North
2020-11-21T01:59:57Z,1605923997,2020,2,0,326.0833,326.0833,80.084,131.961,991.7,-2.98,-999.0,yes,yes,no,300534060611380,SVP-B,AOML/USIABP,NABOS,North
2020-11-21T03:00:00Z,1605927600,2020,3,0,326.125,326.125,80.097,131.968,990.9,-2.98,-999.0,yes,yes,no,300534060611380,SVP-B,AOML/USIABP,NABOS,North
2020-11-21T04:00:02Z,1605931203,2020,4,0,326.1667,326.1667,80.108,131.983,990.3,-2.99,-999.0,yes,yes,no,300534060611380,SVP-B,AOML/USIABP,NABOS,North
2020-11-21T04:59:57Z,1605934797,2020,5,0,326.2083,326.2083,80.116,132.009,990.1,-2.99,-999.0,yes,yes,no,300534060611380,SVP-B,AOML/USIABP,NABOS,North
2020-11-21T06:00:00Z,1605938400,2020,6,0,326.25,326.25,80.122,132.053,990.1,-2.98,-999.0,yes,yes,no,300534060611380,SVP-B,AOML/USIABP,NABOS,North
2020-11-21T07:00:02Z,1605942003,2020,7,0,326.2917,326.2917,80.126,132.104,990.6,-2.97,-999.0,yes,yes,no,300534060611380,SVP-B,AOML/USIABP,NABOS,North
2020-11-21T07:59:57Z,1605945597,2020,8,0,326.3333,326.3333,80.127,132.157,991.3,-2.96,-999.0,yes,yes,no,300534060611380,SVP-B,AOML/USIABP,NABOS,North
2020-11-21T09:00:00Z,1605949200,2020,9,0,326.375,326.375,80.128,132.196,991.6,-2.95,-999.0,yes,yes,no,300534060611380,SVP-B,AOML/USIABP,NABOS,North
2020-11-21T10:00:02Z,1605952803,2020,10,0,326.4167,326.4167,80.13,132.222,991.7,-2.93,-999.0,yes,yes,no,300534060611380,SVP-B,AOML/USIABP,NABOS,North
2020-11-21T10:59:57Z,1605956397,2020,11,0,326.4583,326.4583,80.134,132.236,991.7,-2.93,-999.0,yes,yes,no,300534060611380,SVP-B,AOML/USIABP,NABOS,North
2020-11-21T12:00:00Z,1605960000,2020,12,0,326.5,326.5,80.14,132.237,991.4,-2.93,-999.0,yes,yes,no,300534060611380,SVP-B,AOML/USIABP,NABOS,North
2020-11-21T13:00:02Z,1605963603,2020,13,0,326.5417,326.5417,80.15,132.241,991.2,-2.92,-999.0,yes,yes,no,300534060611380,SVP-B,AOML/USIABP,NABOS,North
2020-11-21T13:59:57Z,1605967197,2020,14,0,326.5833,326.5833,80.161,132.25,991.2,-2.9,-999.0,yes,yes,no,300534060611380,SVP-B,AOML/USIABP,NABOS,North
2020-11-21T15:00:00Z,1605970800,2020,15,0,326.625,326.625,80.172,132.285,991.5,-2.9,-999.0,yes,yes,no,300534060611380,SVP-B,AOML/USIABP,NABOS,North
2020-11-21T16:00:02Z,1605974403,2020,16,0,326.6667,326.6667,80.182,132.326,991.4,-2.87,-999.0,yes,yes,no,300534060611380,SVP-B,AOML/USIABP,NABOS,North
2020-11-21T16:59:57Z,1605977997,2020,17,0,326.7083,326.7083,80.191,132.376,991.5,-2.87,-999.0,yes,yes,no,300534060611380,SVP-B,AOML/USIABP,NABOS,North
2020-11-21T18:00:00Z,1605981600,2020,18,0,326.75,326.75,80.2,132.433,991.6,-2.88,-999.0,yes,yes,no,300534060611380,SVP-B,AOML/USIABP,NABOS,North
2020-11-21T19:00:02Z,1605985203,2020,19,0,326.7917,326.7917,80.207,132.487,991.6,-2.89,-999.0,yes,yes,no,300534060611380,SVP-B,AOML/USIABP,NABOS,North
2020-11-21T19:59:57Z,1605988797,2020,20,0,326.8333,326.8333,80.212,132.531,991.7,-2.9,-999.0,yes,yes,no,300534060611380,SVP-B,AOML/USIABP,NABOS,North
2020-11-21T21:00:00Z,1605992400,2020,21,0,326.875,326.875,80.218,132.577,992.2,-2.93,-999.0,yes,yes,no,300534060611380,SVP-B,AOML/USIABP,NABOS,North
2020-11-21T22:00:02Z,1605996003,2020,22,0,326.9167,326.9167,80.226,132.616,993.0,-2.97,-999.0,yes,yes,no,300534060611380,SVP-B,AOML/USIABP,NABOS,North
2020-11-21T22:59:57Z,1605999597,2020,23,0,326.9583,326.9583,80.235,132.652,993.3,-3.03,-999.0,yes,yes,no,300534060611380,SVP-B,AOML/USIABP,NABOS,North
2020-11-22T00:00:00Z,1606003200,2020,0,0,327.0,327.0,80.244,132.685,993.8,-3.12,-999.0,yes,yes,no,300534060611380,SVP-B,AOML/USIABP,NABOS,North
2020-11-22T01:00:02Z,1606006803,2020,1,0,327.0417,327.0417,80.255,132.72,994.4,-3.2,-999.0,yes,yes,no,300534060611380,SVP-B,AOML/USIABP,NABOS,North
2020-11-22T01:59:57Z,1606010397,2020,2,0,327.0833,327.0833,80.266,132.756,994.8,-3.3,-999.0,yes,yes,no,300534060611380,SVP-B,AOML/USIABP,NABOS,North
2020-11-22T03:00:00Z,1606014000,2020,3,0,327.125,327.125,80.278,132.792,995.6,-3.39,-999.0,yes,yes,no,300534060611380,SVP-B,AOML/USIABP,NABOS,North
2020-11-22T04:00:02Z,1606017603,2020,4,0,327.1667,327.1667,80.289,132.835,995.8,-3.47,-999.0,yes,yes,no,300534060611380,SVP-B,AOML/USIABP,NABOS,North
2020-11-22T04:59:57Z,1606021197,2020,5,0,327.2083,327.2083,80.299,132.881,996.7,-3.53,-999.0,yes,yes,no,300534060611380,SVP-B,AOML/USIABP,NABOS,North
2020-11-22T06:00:00Z,1606024800,2020,6,0,327.25,327.25,80.309,132.93,997.4,-3.59,-999.0,yes,yes,no,300534060611380,SVP-B,AOML/USIABP,NABOS,North
2020-11-22T07:00:02Z,1606028403,2020,7,0,327.2917,327.2917,80.317,132.977,997.8,-3.65,-999.0,yes,yes,no,300534060611380,SVP-B,AOML/USIABP,NABOS,North
2020-11-22T07:59:57Z,1606031997,2020,8,0,327.3333,327.3333,80.325,133.02,998.3,-3.7,-999.0,yes,yes,no,300534060611380,SVP-B,AOML/USIABP,NABOS,North
2020-11-22T09:00:00Z,1606035600,2020,9,0,327.375,327.375,80.332,133.055,998.9,-3.75,-999.0,yes,yes,no,300534060611380,SVP-B,AOML/USIABP,NABOS,North
2020-11-22T10:00:02Z,1606039203,2020,10,0,327.4167,327.4167,80.34,133.078,999.6,-3.8,-999.0,yes,yes,no,300534060611380,SVP-B,AOML/USIABP,NABOS,North
2020-11-22T10:59:57Z,1606042797,2020,11,0,327.4583,327.4583,80.347,133.088,999.8,-3.84,-999.0,yes,yes,no,300534060611380,SVP-B,AOML/USIABP,NABOS,North
2020-11-22T12:00:00Z,1606046400,2020,12,0,327.5,327.5,80.358,133.096,1000.3,-3.86,-999.0,yes,yes,no,300534060611380,SVP-B,AOML/USIABP,NABOS,North
2020-11-22T13:00:02Z,1606050003,2020,13,0,327.5417,327.5417,80.369,133.107,1000.7,-3.89,-999.0,yes,yes,no,300534060611380,SVP-B,AOML/USIABP,NABOS,North
2020-11-22T13:59:57Z,1606053597,2020,14,0,327.5833,327.5833,80.38,133.123,1001.2,-3.93,-999.0,yes,yes,no,300534060611380,SVP-B,AOML/USIABP,NABOS,North
2020-11-22T15:00:00Z,1606057200,2020,15,0,327.625,327.625,80.392,133.142,1001.9,-3.98,-999.0,yes,yes,no,300534060611380,SVP-B,AOML/USIABP,NABOS,North
2020-11-22T16:00:02Z,1606060803,2020,16,0,327.6667,327.6667,80.403,133.165,1002.1,-4.0,-999.0,yes,yes,no,300534060611380,SVP-B,AOML/USIABP,NABOS,North
2020-11-22T16:59:57Z,1606064397,2020,17,0,327.7083,327.7083,80.415,133.192,1002.6,-4.01,-999.0,yes,yes,no,300534060611380,SVP-B,AOML/USIABP,NABOS,North
2020-11-22T18:00:00Z,1606068000,2020,18,0,327.75,327.75,80.424,133.223,1003.1,-3.98,-999.0,yes,yes,no,300534060611380,SVP-B,AOML/USIABP,NABOS,North
2020-11-22T19:00:02Z,1606071603,2020,19,0,327.7917,327.7917,80.432,133.249,1003.5,-3.95,-999.0,yes,yes,no,300534060611380,SVP-B,AOML/USIABP,NABOS,North
2020-11-22T19:59:57Z,1606075197,2020,20,0,327.8333,327.8333,80.44,133.271,1004.3,-3.91,-999.0,yes,yes,no,300534060611380,SVP-B,AOML/USIABP,NABOS,North
2020-11-22T21:00:00Z,1606078800,2020,21,0,327.875,327.875,80.447,133.288,1005.1,-3.9,-999.0,yes,yes,no,300534060611380,SVP-B,AOML/USIABP,NABOS,North
2020-11-22T22:00:02Z,1606082403,2020,22,0,327.9167,327.9167,80.452,133.293,1005.7,-3.92,-999.0,yes,yes,no,300534060611380,SVP-B,AOML/USIABP,NABOS,North
2020-11-22T22:59:57Z,1606085997,2020,23,0,327.9583,327.9583,80.458,133.288,1006.0,-3.96,-999.0,yes,yes,no,300534060611380,SVP-B,AOML/USIABP,NABOS,North
2020-11-23T00:00:00Z,1606089600,2020,0,0,328.0,328.0,80.464,133.278,1006.6,-4.03,-999.0,yes,yes,no,300534060611380,SVP-B,AOML/USIABP,NABOS,North
2020-11-23T01:00:02Z,1606093203,2020,1,0,328.0417,328.0417,80.472,133.269,1007.2,-4.11,-999.0,yes,yes,no,300534060611380,SVP-B,AOML/USIABP,NABOS,North
2020-11-23T01:59:57Z,1606096797,2020,2,0,328.0833,328.0833,80.48,133.268,1007.4,-4.2,-999.0,yes,yes,no,300534060611380,SVP-B,AOML/USIABP,NABOS,North
2020-11-23T03:00:00Z,1606100400,2020,3,0,328.125,328.125,80.487,133.273,1008.1,-4.28,-999.0,yes,yes,no,300534060611380,SVP-B,AOML/USIABP,NABOS,North
2020-11-23T04:00:02Z,1606104003,2020,4,0,328.1667,328.1667,80.494,133.28,1008.7,-4.36,-999.0,yes,yes,no,300534060611380,SVP-B,AOML/USIABP,NABOS,North
2020-11-23T04:59:57Z,1606107597,2020,5,0,328.2083,328.2083,80.501,133.29,1009.3,-4.43,-999.0,yes,yes,no,300534060611380,SVP-B,AOML/USIABP,NABOS,North
2020-11-23T06:00:00Z,1606111200,2020,6,0,328.25,328.25,80.506,133.303,1009.8,-4.48,-999.0,yes,yes,no,300534060611380,SVP-B,AOML/USIABP,NABOS,North
2020-11-23T07:00:02Z,1606114803,2020,7,0,328.2917,328.2917,80.511,133.316,1010.4,-4.54,-999.0,yes,yes,no,300534060611380,SVP-B,AOML/USIABP,NABOS,North
2020-11-23T07:59:57Z,1606118397,2020,8,0,328.3333,328.3333,80.514,133.326,1011.1,-4.6,-999.0,yes,yes,no,300534060611380,SVP-B,AOML/USIABP,NABOS,North
2020-11-23T09:00:00Z,1606122000,2020,9,0,328.375,328.375,80.517,133.331,1011.7,-4.66,-999.0,yes,yes,no,300534060611380,SVP-B,AOML/USIABP,NABOS,North
2020-11-23T10:00:02Z,1606125603,2020,10,0,328.4167,328.4167,80.519,133.331,1012.5,-4.7,-999.0,yes,yes,no,300534060611380,SVP-B,AOML/USIABP,NABOS,North
2020-11-23T10:59:57Z,1606129197,2020,11,0,328.4583,328.4583,80.521,133.328,1013.0,-4.73,-999.0,yes,yes,no,300534060611380,SVP-B,AOML/USIABP,NABOS,North
2020-11-23T12:00:00Z,1606132800,2020,12,0,328.5,328.5,80.524,133.324,1013.4,-4.78,-999.0,yes,yes,no,300534060611380,SVP-B,AOML/USIABP,NABOS,North
2020-11-23T13:00:02Z,1606136403,2020,13,0,328.5417,328.5417,80.527,133.321,1013.8,-4.8,-999.0,yes,yes,no,300534060611380,SVP-B,AOML/USIABP,NABOS,North
2020-11-23T13:59:57Z,1606139997,2020,14,0,328.5833,328.5833,80.53,133.32,1014.1,-4.84,-999.0,yes,yes,no,300534060611380,SVP-B,AOML/USIABP,NABOS,North
2020-11-23T15:00:00Z,1606143600,2020,15,0,328.625,328.625,80.533,133.319,1014.5,-4.87,-999.0,yes,yes,no,300534060611380,SVP-B,AOML/USIABP,NABOS,North
2020-11-23T16:00:02Z,1606147203,2020,16,0,328.6667,328.6667,80.536,133.32,1015.0,-4.9,-999.0,yes,yes,no,300534060611380,SVP-B,AOML/USIABP,NABOS,North
2020-11-23T16:59:57Z,1606150797,2020,17,0,328.7083,328.7083,80.539,133.322,1015.5,-4.92,-999.0,yes,yes,no,300534060611380,SVP-B,AOML/USIABP,NABOS,North
2020-11-23T18:00:00Z,1606154400,2020,18,0,328.75,328.75,80.541,133.327,1015.9,-4.94,-999.0,yes,yes,no,300534060611380,SVP-B,AOML/USIABP,NABOS,North
2020-11-23T19:00:02Z,1606158003,2020,19,0,328.7917,328.7917,80.542,133.333,1016.2,-4.96,-999.0,yes,yes,no,300534060611380,SVP-B,AOML/USIABP,NABOS,North
2020-11-23T19:59:57Z,1606161597,2020,20,0,328.8333,328.8333,80.543,133.338,1016.9,-4.96,-999.0,yes,yes,no,300534060611380,SVP-B,AOML/USIABP,NABOS,North
2020-11-23T21:00:00Z,1606165200,2020,21,0,328.875,328.875,80.543,133.341,1017.2,-4.99,-999.0,yes,yes,no,300534060611380,SVP-B,AOML/USIABP,NABOS,North
2020-11-23T22:00:02Z,1606168803,2020,22,0,328.9167,328.9167,80.543,133.342,1017.5,-4.99,-999.0,yes,yes,no,300534060611380,SVP-B,AOML/USIABP,NABOS,North
2020-11-23T22:59:57Z,1606172397,2020,23,0,328.9583,328.9583,80.543,133.336,1017.9,-5.0,-999.0,yes,yes,no,300534060611380,SVP-B,AOML/USIABP,NABOS,North
2020-11-24T00:00:00Z,1606176000,2020,0,0,329.0,329.0,80.543,133.332,1018.2,-5.0,-999.0,yes,yes,no,300534060611380,SVP-B,AOML/USIABP,NABOS,North
2020-11-24T01:00:02Z,1606179603,2020,1,0,329.0417,329.0417,80.544,133.326,1018.4,35.95,-999.0,yes,yes,no,300534060611380,SVP-B,AOML/USIABP,NABOS,North
2020-11-24T01:59:57Z,1606183197,2020,2,0,329.0833,329.0833,80.546,133.321,1018.5,35.95,-999.0,yes,yes,no,300534060611380,SVP-B,AOML/USIABP,NABOS,North
2020-11-24T03:00:00Z,1606186800,2020,3,0,329.125,329.125,80.548,133.316,1018.8,35.95,-999.0,yes,yes,no,300534060611380,SVP-B,AOML/USIABP,NABOS,North
2020-11-24T04:00:02Z,1606190403,2020,4,0,329.1667,329.1667,80.55,133.311,1019.1,35.95,-999.0,yes,yes,no,300534060611380,SVP-B,AOML/USIABP,NABOS,North
2020-11-24T04:59:57Z,1606193997,2020,5,0,329.2083,329.2083,80.551,133.308,1019.2,35.95,-999.0,yes,yes,no,300534060611380,SVP-B,AOML/USIABP,NABOS,North
2020-11-24T06:00:00Z,1606197600,2020,6,0,329.25,329.25,80.553,133.307,1019.5,35.95,-999.0,yes,yes,no,300534060611380,SVP-B,AOML/USIABP,NABOS,North
2020-11-24T07:00:02Z,1606201203,2020,7,0,329.2917,329.2917,80.553,133.307,1019.7,35.95,-999.0,yes,yes,no,300534060611380,SVP-B,AOML/USIABP,NABOS,North
2020-11-24T07:59:57Z,1606204797,2020,8,0,329.3333,329.3333,80.553,133.307,1020.0,35.95,-999.0,yes,yes,no,300534060611380,SVP-B,AOML/USIABP,NABOS,North
2020-11-24T09:00:00Z,1606208400,2020,9,0,329.375,329.375,80.553,133.307,1020.5,35.95,-999.0,yes,yes,no,300534060611380,SVP-B,AOML/USIABP,NABOS,North
2020-11-24T10:00:02Z,1606212003,2020,10,0,329.4167,329.4167,80.553,133.304,1020.9,35.95,-999.0,yes,yes,no,300534060611380,SVP-B,AOML/USIABP,NABOS,North
2020-11-24T10:59:57Z,1606215597,2020,11,0,329.4583,329.4583,80.553,133.301,1020.8,35.95,-999.0,yes,yes,no,300534060611380,SVP-B,AOML/USIABP,NABOS,North
2020-11-24T12:00:00Z,1606219200,2020,12,0,329.5,329.5,80.553,133.299,1020.7,35.95,-999.0,yes,yes,no,300534060611380,SVP-B,AOML/USIABP,NABOS,North
2020-11-24T13:00:02Z,1606222803,2020,13,0,329.5417,329.5417,80.554,133.297,1020.8,35.95,-999.0,yes,yes,no,300534060611380,SVP-B,AOML/USIABP,NABOS,North
2020-11-24T13:59:57Z,1606226397,2020,14,0,329.5833,329.5833,80.556,133.294,1020.8,35.95,-999.0,yes,yes,no,300534060611380,SVP-B,AOML/USIABP,NABOS,North
2020-11-24T15:00:00Z,1606230000,2020,15,0,329.625,329.625,80.557,133.291,1020.9,35.95,-999.0,yes,yes,no,300534060611380,SVP-B,AOML/USIABP,NABOS,North
2020-11-24T16:00:02Z,1606233603,2020,16,0,329.6667,329.6667,80.559,133.288,1020.9,35.95,-999.0,yes,yes,no,300534060611380,SVP-B,AOML/USIABP,NABOS,North
2020-11-24T16:59:57Z,1606237197,2020,17,0,329.7083,329.7083,80.561,133.288,1020.9,35.95,-999.0,yes,yes,no,300534060611380,SVP-B,AOML/USIABP,NABOS,North
2020-11-24T18:00:00Z,1606240800,2020,18,0,329.75,329.75,80.562,133.289,1020.8,35.95,-999.0,yes,yes,no,300534060611380,SVP-B,AOML/USIABP,NABOS,North
2020-11-24T19:00:02Z,1606244403,2020,19,0,329.7917,329.7917,80.563,133.292,1020.9,35.95,-999.0,yes,yes,no,300534060611380,SVP-B,AOML/USIABP,NABOS,North
2020-11-24T19:59:57Z,1606247997,2020,20,0,329.8333,329.8333,80.564,133.295,1021.2,35.95,-999.0,yes,yes,no,300534060611380,SVP-B,AOML/USIABP,NABOS,North
2020-11-24T21:00:00Z,1606251600,2020,21,0,329.875,329.875,80.564,133.296,1021.2,35.95,-999.0,yes,yes,no,300534060611380,SVP-B,AOML/USIABP,NABOS,North
2020-11-24T22:00:02Z,1606255203,2020,22,0,329.9167,329.9167,80.563,133.296,1021.0,35.95,-999.0,yes,yes,no,300534060611380,SVP-B,AOML/USIABP,NABOS,North
2020-11-24T22:59:57Z,1606258797,2020,23,0,329.9583,329.9583,80.563,133.296,1020.8,35.95,-999.0,yes,yes,no,300534060611380,SVP-B,AOML/USIABP,NABOS,North
2020-11-25T00:00:00Z,1606262400,2020,0,0,330.0,330.0,80.563,133.297,1020.8,35.95,-999.0,yes,yes,no,300534060611380,SVP-B,AOML/USIABP,NABOS,North
2020-11-25T01:00:02Z,1606266003,2020,1,0,330.0417,330.0417,80.563,133.297,1020.7,35.95,-999.0,yes,yes,no,300534060611380,SVP-B,AOML/USIABP,NABOS,North
2020-11-25T01:59:57Z,1606269597,2020,2,0,330.0833,330.0833,80.564,133.299,1020.6,35.95,-999.0,yes,yes,no,300534060611380,SVP-B,AOML/USIABP,NABOS,North
2020-11-25T03:00:00Z,1606273200,2020,3,0,330.125,330.125,80.565,133.302,1020.5,35.95,-999.0,yes,yes,no,300534060611380,SVP-B,AOML/USIABP,NABOS,North
2020-11-25T04:00:02Z,1606276803,2020,4,0,330.1667,330.1667,80.567,133.306,1020.4,35.95,-999.0,yes,yes,no,300534060611380,SVP-B,AOML/USIABP,NABOS,North
2020-11-25T04:59:57Z,1606280397,2020,5,0,330.2083,330.2083,80.569,133.311,1020.3,35.95,-999.0,yes,yes,no,300534060611380,SVP-B,AOML/USIABP,NABOS,North
2020-11-25T06:00:00Z,1606284000,2020,6,0,330.25,330.25,80.57,133.317,1020.5,35.95,-999.0,yes,yes,no,300534060611380,SVP-B,AOML/USIABP,NABOS,North
2020-11-25T07:00:02Z,1606287603,2020,7,0,330.2917,330.2917,80.571,133.325,1020.5,35.95,-999.0,yes,yes,no,300534060611380,SVP-B,AOML/USIABP,NABOS,North
2020-11-25T07:59:57Z,1606291197,2020,8,0,330.3333,330.3333,80.572,133.331,1020.3,35.95,-999.0,yes,yes,no,300534060611380,SVP-B,AOML/USIABP,NABOS,North
2020-11-25T09:00:00Z,1606294800,2020,9,0,330.375,330.375,80.572,133.338,1020.2,35.95,-999.0,yes,yes,no,300534060611380,SVP-B,AOML/USIABP,NABOS,North
2020-11-25T10:00:02Z,1606298403,2020,10,0,330.4167,330.4167,80.572,133.344,1020.2,35.95,-999.0,yes,yes,no,300534060611380,SVP-B,AOML/USIABP,NABOS,North
2020-11-25T10:59:57Z,1606301997,2020,11,0,330.4583,330.4583,80.571,133.35,1020.2,35.95,-999.0,yes,yes,no,300534060611380,SVP-B,AOML/USIABP,NABOS,North
2020-11-25T12:00:00Z,1606305600,2020,12,0,330.5,330.5,80.571,133.356,1020.1,35.95,-999.0,yes,yes,no,300534060611380,SVP-B,AOML/USIABP,NABOS,North
2020-11-25T13:00:02Z,1606309203,2020,13,0,330.5417,330.5417,80.571,133.362,1019.6,35.95,-999.0,yes,yes,no,300534060611380,SVP-B,AOML/USIABP,NABOS,North
2020-11-25T13:59:57Z,1606312797,2020,14,0,330.5833,330.5833,80.572,133.366,1019.7,35.95,-999.0,yes,yes,no,300534060611380,SVP-B,AOML/USIABP,NABOS,North
2020-11-25T15:00:00Z,1606316400,2020,15,0,330.625,330.625,80.573,133.37,1019.4,35.95,-999.0,yes,yes,no,300534060611380,SVP-B,AOML/USIABP,NABOS,North
2020-11-25T16:00:02Z,1606320003,2020,16,0,330.6667,330.6667,80.575,133.378,1019.3,35.95,-999.0,yes,yes,no,300534060611380,SVP-B,AOML/USIABP,NABOS,North
2020-11-25T16:59:57Z,1606323597,2020,17,0,330.7083,330.7083,80.576,133.387,1019.1,35.95,-999.0,yes,yes,no,300534060611380,SVP-B,AOML/USIABP,NABOS,North
2020-11-25T18:00:00Z,1606327200,2020,18,0,330.75,330.75,80.578,133.398,1018.9,35.95,-999.0,yes,yes,no,300534060611380,SVP-B,AOML/USIABP,NABOS,North
2020-11-25T19:00:02Z,1606330803,2020,19,0,330.7917,330.7917,80.58,133.41,1019.0,35.95,-999.0,yes,yes,no,300534060611380,SVP-B,AOML/USIABP,NABOS,North
2020-11-25T19:59:57Z,1606334397,2020,20,0,330.8333,330.8333,80.581,133.421,1019.2,35.95,-999.0,yes,yes,no,300534060611380,SVP-B,AOML/USIABP,NABOS,North
2020-11-25T21:00:00Z,1606338000,2020,21,0,330.875,330.875,80.582,133.431,1019.3,35.95,-999.0,yes,yes,no,300534060611380,SVP-B,AOML/USIABP,NABOS,North
2020-11-25T22:00:02Z,1606341603,2020,22,0,330.9167,330.9167,80.584,133.441,1019.2,35.95,-999.0,yes,yes,no,300534060611380,SVP-B,AOML/USIABP,NABOS,North
2020-11-25T22:59:57Z,1606345197,2020,23,0,330.9583,330.9583,80.585,133.449,1019.0,35.95,-999.0,yes,yes,no,300534060611380,SVP-B,AOML/USIABP,NABOS,North
2020-11-26T00:00:00Z,1606348800,2020,0,0,331.0,331.0,80.588,133.457,1018.9,35.95,-999.0,yes,yes,no,300534060611380,SVP-B,AOML/USIABP,NABOS,North
2020-11-26T01:00:02Z,1606352403,2020,1,0,331.0417,331.0417,80.591,133.465,1018.7,35.95,-999.0,yes,yes,no,300534060611380,SVP-B,AOML/USIABP,NABOS,North
2020-11-26T01:59:57Z,1606355997,2020,2,0,331.0833,331.0833,80.595,133.476,1018.4,35.95,-999.0,yes,yes,no,300534060611380,SVP-B,AOML/USIABP,NABOS,North
2020-11-26T03:00:00Z,1606359600,2020,3,0,331.125,331.125,80.6,133.49,1018.4,35.95,-999.0,yes,yes,no,300534060611380,SVP-B,AOML/USIABP,NABOS,North
2020-11-26T04:00:02Z,1606363203,2020,4,0,331.1667,331.1667,80.605,133.509,1018.2,35.95,-999.0,yes,yes,no,300534060611380,SVP-B,AOML/USIABP,NABOS,North
2020-11-26T04:59:57Z,1606366797,2020,5,0,331.2083,331.2083,80.61,133.528,1018.1,35.95,-999.0,yes,yes,no,300534060611380,SVP-B,AOML/USIABP,NABOS,North
2020-11-26T06:00:00Z,1606370400,2020,6,0,331.25,331.25,80.616,133.549,1017.9,35.95,-999.0,yes,yes,no,300534060611380,SVP-B,AOML/USIABP,NABOS,North
2020-11-26T07:00:02Z,1606374003,2020,7,0,331.2917,331.2917,80.621,133.573,1017.8,35.95,-999.0,yes,yes,no,300534060611380,SVP-B,AOML/USIABP,NABOS,North